Date,TemperatureHighF,TemperatureAvgF,TemperatureLowF,DewpointHighF,DewpointAvgF,DewpointLowF,HumidityHigh,HumidityAvg,HumidityLow,PressureMaxIn,PressureMinIn,WindSpeedMaxMPH,WindSpeedAvgMPH,GustSpeedMaxMPH,PrecipitationSumIn
2013-1-1,36.5,28.7,23.5,31.5,23.0,17.1,84,79,76,30.28,30.09,0,0,0,0.00
2013-1-2,36.1,30.6,17.8,23.2,19.6,11.7,77,64,53,30.27,30.18,0,0,0,0.00
2013-1-3,43.0,35.9,23.0,28.3,24.0,16.6,78,62,51,30.42,30.25,0,0,0,0.00
2013-1-4,46.2,37.4,23.4,27.1,23.6,16.6,76,58,46,30.47,30.34,0,0,0,0.00
2013-1-5,43.3,39.4,27.7,32.0,29.8,18.5,76,68,62,30.31,30.17,0,0,0,0.00
2013-1-6,42.6,34.5,25.5,27.9,22.3,16.4,78,61,49,30.38,30.22,0,0,0,0.00
2013-1-7,52.0,36.7,22.5,32.2,23.7,14.1,73,60,46,30.37,30.16,0,0,0,0.00
2013-1-8,55.2,48.3,31.6,41.2,33.9,21.9,74,58,50,30.19,30.08,0,0,0,0.00
2013-1-9,57.0,52.5,45.1,45.3,40.9,36.0,83,65,56,30.41,30.25,0,0,0,0.00
2013-1-10,53.4,49.9,43.3,49.3,46.0,35.1,89,86,60,30.30,29.86,0,0,0,0.00
2013-1-11,65.1,59.1,46.2,49.9,46.3,42.3,87,63,51,29.91,29.78,0,0,0,0.00
2013-1-12,54.0,36.9,29.8,45.7,29.1,25.5,84,74,52,30.01,29.87,0,0,0,0.00
2013-1-13,27.3,22.6,18.7,22.8,15.5,11.8,83,74,71,30.35,30.00,0,0,0,0.00
2013-1-14,24.6,21.3,17.2,14.9,13.1,10.7,76,70,66,30.47,30.34,0,0,0,0.00
2013-1-15,36.1,29.8,19.6,20.0,17.4,11.7,72,60,49,30.35,30.19,0,0,0,0.00
2013-1-16,42.1,35.1,17.4,24.8,21.6,10.5,75,58,47,30.20,30.10,0,0,0,0.00
2013-1-17,45.7,38.9,26.6,31.2,26.9,18.1,80,62,51,30.48,30.19,0,0,0,0.00
2013-1-18,57.4,47.6,25.2,34.3,29.2,17.7,76,50,36,30.51,30.23,0,0,0,0.00
2013-1-19,62.4,54.3,39.4,38.6,35.2,24.9,62,49,41,30.20,30.07,0,0,0,0.00
2013-1-20,54.3,45.6,32.5,31.4,22.8,15.5,68,41,33,30.30,30.19,0,0,0,0.00
2013-1-21,34.7,29.4,21.4,15.7,12.8,9.5,61,50,45,30.40,30.30,0,0,0,0.00
2013-1-22,37.6,32.4,23.5,19.6,16.3,11.4,60,51,47,30.38,30.25,0,0,0,0.00
2013-1-23,57.7,43.6,24.4,40.9,30.6,15.0,69,60,53,30.30,30.16,0,0,0,0.00
2013-1-24,36.3,32.1,26.4,21.7,14.5,10.7,59,48,43,30.42,30.17,0,0,0,0.00
2013-1-25,49.5,40.5,30.0,29.4,26.1,17.7,75,57,44,30.27,30.14,0,0,0,0.00
2013-1-26,58.3,49.9,32.5,32.8,27.5,22.2,69,43,32,30.31,30.19,0,0,0,0.00
2013-1-27,54.3,49.7,42.1,49.6,42.6,26.9,84,76,47,30.18,29.95,0,0,0,0.00
2013-1-28,73.6,67.1,54.5,61.2,57.9,49.8,86,73,60,30.01,29.88,0,0,0,0.00
2013-1-29,66.9,59.0,49.6,59.5,54.2,45.9,88,84,76,29.86,29.51,0,0,0,0.00
2013-1-30,49.1,31.1,27.1,45.4,24.3,18.6,88,76,70,30.03,29.52,0,0,0,0.00
2013-1-31,41.2,27.9,13.8,28.0,18.1,2.8,79,67,56,30.44,30.01,0,0,0,0.00
2013-2-1,37.2,27.8,11.7,18.3,12.4,1.5,66,53,45,30.48,30.20,0,0,0,0.00
2013-2-2,50.4,41.5,27.7,34.2,28.7,15.3,70,61,52,30.23,30.17,0,0,0,0.00
2013-2-3,50.9,44.0,34.7,30.0,25.8,23.5,72,50,39,30.29,30.01,0,0,0,0.00
2013-2-4,59.9,49.7,37.2,42.7,34.6,24.8,67,56,44,29.99,29.86,0,0,0,0.00
2013-2-5,61.3,48.8,29.8,40.8,32.3,22.4,76,55,38,30.11,29.96,0,0,0,0.00
2013-2-6,59.5,50.0,33.4,39.0,34.7,24.7,71,56,46,30.19,30.02,0,0,0,0.00
2013-2-7,53.8,49.8,41.4,47.4,43.1,35.1,86,78,67,30.12,29.92,0,0,0,0.00
2013-2-8,49.8,40.0,32.9,35.5,30.2,26.6,83,68,55,30.34,30.14,0,0,0,0.00
2013-2-9,44.4,38.9,33.1,33.4,30.4,26.3,83,72,60,30.27,29.92,0,0,0,0.00
2013-2-10,60.3,52.2,38.8,51.9,38.0,26.5,88,61,39,30.00,29.68,0,0,0,0.00
2013-2-11,50.9,42.2,32.2,30.2,26.3,22.4,70,54,41,30.20,30.05,0,0,0,0.00
2013-2-12,47.5,40.6,28.6,33.1,29.2,20.4,78,64,53,30.18,29.96,0,0,0,0.00
2013-2-13,48.6,40.2,33.6,36.4,31.6,28.3,84,72,58,30.01,29.93,0,0,0,0.00
2013-2-14,55.4,44.8,34.3,35.2,29.8,24.1,71,56,41,30.17,29.95,0,0,0,0.00
2013-2-15,43.3,35.4,27.1,29.5,18.9,11.4,73,52,35,30.33,30.16,0,0,0,0.00
2013-2-16,40.8,32.3,24.6,22.5,18.3,11.6,71,56,45,30.33,30.15,0,0,0,0.00
2013-2-17,36.0,36.0,36.0,20.0,20.0,20.0,52,52,52,30.15,30.15,0,0,0,0.00
2013-2-18,36.0,36.0,36.0,20.0,20.0,20.0,52,52,52,30.15,30.15,0,0,0,0.00
2013-2-19,36.0,36.0,36.0,20.0,20.0,20.0,52,52,52,30.15,30.15,0,0,0,0.00
2013-2-20,36.0,36.0,36.0,20.0,20.0,20.0,52,52,52,30.15,30.15,0,0,0,0.00
2013-2-21,36.0,36.0,36.0,20.0,20.0,20.0,52,52,52,30.15,30.15,0,0,0,0.00
2013-2-22,36.0,36.0,36.0,20.0,20.0,20.0,52,52,52,30.15,30.15,0,0,0,0.00
2013-2-23,36.0,36.0,36.0,20.0,20.0,20.0,52,52,52,30.15,30.15,0,0,0,0.00
2013-2-24,36.0,36.0,36.0,20.0,20.0,20.0,52,52,52,30.15,30.15,0,0,0,0.00
2013-2-25,36.0,36.0,36.0,20.0,20.0,20.0,52,52,52,30.15,30.15,0,0,0,0.00
2013-2-26,36.0,36.0,36.0,20.0,20.0,20.0,52,52,52,30.15,30.15,0,0,0,0.00
2013-2-27,36.0,36.0,36.0,20.0,20.0,20.0,52,52,52,30.15,30.15,0,0,0,0.00
2013-2-28,36.0,35.7,32.5,25.9,20.6,20.0,72,54,52,30.17,30.15,0,0,0,0.00
2013-3-1,30.9,29.4,28.0,24.6,23.1,21.8,81,77,71,30.24,30.15,0,0,0,0.00
2013-3-2,34.3,28.2,23.5,22.7,19.1,15.8,81,69,57,30.32,30.22,0,0,0,0.00
2013-3-3,55.8,45.9,23.5,32.5,28.2,16.5,75,51,40,30.21,29.88,0,0,0,0.00
2013-3-4,65.3,49.8,38.1,44.9,36.1,26.2,76,60,47,29.88,29.67,0,0,0,0.00
2013-3-5,43.0,36.3,29.5,33.1,24.6,18.8,85,63,49,30.30,29.85,0,0,0,0.00
2013-3-6,46.2,35.3,25.9,26.0,20.9,15.4,65,56,44,30.41,30.28,0,0,0,0.00
2013-3-7,61.0,46.3,33.1,34.9,28.1,21.8,65,50,34,30.32,30.19,0,0,0,0.00
2013-3-8,60.6,48.1,37.0,38.9,33.0,28.0,71,57,43,30.31,30.10,0,0,0,0.00
2013-3-9,72.3,56.9,45.5,52.6,43.5,35.2,83,62,42,30.11,29.77,0,0,0,0.00
2013-3-10,59.5,45.6,32.4,52.7,40.6,27.9,86,83,70,29.92,29.68,0,0,0,0.00
2013-3-11,43.0,33.9,28.0,30.2,25.4,22.4,84,72,53,30.06,29.88,0,0,0,0.00
2013-3-12,53.8,40.9,29.1,30.7,25.3,21.2,75,55,38,30.30,30.04,0,0,0,0.00
2013-3-13,49.6,40.2,27.5,28.0,23.3,18.1,68,51,39,30.47,30.33,0,0,0,0.00
2013-3-14,71.2,50.9,32.5,43.6,32.4,21.6,68,51,36,30.38,30.13,0,0,0,0.00
2013-3-15,81.3,62.7,45.1,51.3,43.8,34.6,71,52,32,30.14,29.81,0,0,0,0.00
2013-3-16,66.7,57.5,44.4,47.9,41.9,34.3,68,56,46,29.97,29.80,0,0,0,0.00
2013-3-17,44.2,40.8,38.3,37.9,35.6,32.8,86,82,69,30.02,29.74,0,0,0,0.00
2013-3-18,53.4,44.5,39.9,39.7,36.1,28.3,88,74,47,30.06,29.73,0,0,0,0.00
2013-3-19,52.5,43.0,30.4,28.4,25.5,22.1,72,51,36,30.27,30.09,0,0,0,0.00
2013-3-20,43.7,36.3,30.7,28.8,19.3,12.4,81,53,30,30.36,30.15,0,0,0,0.00
2013-3-21,39.4,32.8,28.0,26.1,19.8,13.3,81,60,40,30.15,29.92,0,0,0,0.00
2013-3-22,42.1,36.3,31.3,33.7,30.0,25.8,82,78,71,29.99,29.91,0,0,0,0.00
2013-3-23,42.6,39.4,36.1,37.9,33.9,30.9,85,81,74,29.99,29.76,0,0,0,0.00
2013-3-24,42.4,34.2,28.2,38.2,29.4,20.3,88,82,72,30.09,29.63,0,0,0,0.00
2013-3-25,34.2,28.2,23.4,25.2,20.7,16.9,79,73,66,30.31,30.05,0,0,0,0.00
2013-3-26,43.7,33.0,24.1,27.8,23.4,18.8,81,68,52,30.41,30.30,0,0,0,0.00
2013-3-27,54.9,40.9,26.4,32.8,26.5,18.9,75,58,41,30.36,30.21,0,0,0,0.00
2013-3-28,71.2,56.4,44.4,48.2,38.7,30.2,62,52,43,30.26,30.15,0,0,0,0.00
2013-3-29,71.4,60.1,51.6,54.8,49.0,39.5,83,68,51,30.23,30.15,0,0,0,0.00
2013-3-30,70.2,56.1,50.7,57.2,48.2,44.3,83,75,62,30.18,29.88,0,0,0,0.00
2013-3-31,69.3,56.5,47.7,49.9,43.7,38.2,88,65,41,30.02,29.90,0,0,0,0.00
2013-4-1,57.4,47.4,41.5,40.0,33.8,25.9,75,60,48,30.25,30.00,0,0,0,0.00
2013-4-2,43.3,40.0,36.3,31.8,28.7,25.8,72,64,55,30.32,30.21,0,0,0,0.00
2013-4-3,58.3,45.7,33.1,31.0,26.8,22.6,68,49,33,30.32,30.20,0,0,0,0.00
2013-4-4,57.9,49.3,41.0,32.6,29.8,25.1,60,48,37,30.20,30.09,0,0,0,0.00
2013-4-5,72.0,53.7,33.6,44.0,34.6,24.5,71,51,34,30.22,30.03,0,0,0,0.00
2013-4-6,75.7,62.1,51.3,49.1,42.0,33.9,55,48,38,30.03,29.82,0,0,0,0.00
2013-4-7,79.7,65.9,52.5,59.3,51.0,42.7,74,60,43,29.97,29.79,0,0,0,0.00
2013-4-8,76.6,66.6,58.8,60.9,55.8,51.3,78,69,57,29.86,29.77,0,0,0,0.00
2013-4-9,78.4,68.4,60.1,63.7,57.9,53.5,79,70,58,29.88,29.78,0,0,0,0.00
2013-4-10,68.4,54.8,39.4,62.3,49.3,35.5,87,82,67,29.91,29.71,0,0,0,0.00
2013-4-11,50.4,43.1,34.7,36.2,32.3,29.2,87,67,53,29.87,29.77,0,0,0,0.00
2013-4-12,55.2,44.2,35.2,37.4,31.6,27.3,77,62,48,30.04,29.82,0,0,0,0.00
2013-4-13,72.7,60.7,37.8,48.3,42.8,31.2,78,53,42,30.11,29.86,0,0,0,0.00
2013-4-14,82.0,66.4,51.6,55.2,47.8,41.3,79,54,30,29.88,29.58,0,0,0,0.00
2013-4-15,82.2,64.6,53.2,65.6,54.9,45.6,82,71,53,29.93,29.75,0,0,0,0.00
2013-4-16,66.0,54.2,49.3,55.2,47.7,44.3,85,79,66,30.08,29.93,0,0,0,0.00
2013-4-17,86.2,69.9,50.5,69.9,59.9,45.2,89,72,54,30.05,29.70,0,0,0,0.00
2013-4-18,72.7,52.1,38.5,63.8,45.5,28.5,88,78,67,29.98,29.62,0,0,0,0.00
2013-4-19,55.2,43.7,34.3,31.6,28.3,23.8,68,56,39,30.13,29.96,0,0,0,0.00
2013-4-20,69.1,52.8,35.1,42.8,35.6,27.8,76,54,36,30.26,30.12,0,0,0,0.00
2013-4-21,70.7,59.4,48.7,45.7,40.5,36.6,68,51,36,30.33,30.18,0,0,0,0.00
2013-4-22,73.9,59.9,46.4,46.0,40.3,35.2,67,50,35,30.25,29.97,0,0,0,0.00
2013-4-23,58.8,45.8,36.5,50.4,40.3,32.6,86,82,57,30.14,29.91,0,0,0,0.00
2013-4-24,58.3,43.4,34.7,35.7,31.9,27.4,86,66,39,30.33,30.12,0,0,0,0.00
2013-4-25,70.9,52.9,32.9,43.7,34.9,25.8,77,53,33,30.39,30.26,0,0,0,0.00
2013-4-26,58.6,50.4,46.6,45.1,41.6,37.0,86,73,45,30.37,30.20,0,0,0,0.00
2013-4-27,56.8,51.3,47.1,52.2,47.2,43.1,88,86,82,30.22,30.03,0,0,0,0.00
2013-4-28,83.7,59.0,49.6,57.5,48.8,45.2,88,71,40,30.08,29.92,0,0,0,0.00
2013-4-29,94.6,69.5,50.5,65.6,54.5,45.1,84,62,33,29.97,29.81,0,0,0,0.00
2013-4-30,91.8,75.4,58.8,59.5,53.6,46.8,78,49,31,29.95,29.85,0,0,0,0.00
2013-5-1,89.8,71.6,58.6,65.2,56.9,47.2,76,61,43,30.12,29.94,0,0,0,0.00
2013-5-2,65.8,49.9,34.9,58.4,43.5,31.1,86,79,72,30.26,30.10,0,0,0,0.00
2013-5-3,37.9,34.6,32.7,33.5,30.7,29.3,87,85,83,30.24,29.93,0,0,0,0.00
2013-5-4,49.5,41.2,34.3,37.9,34.0,30.3,86,76,64,30.04,29.87,0,0,0,0.00
2013-5-5,60.6,50.3,41.5,49.0,42.4,35.8,83,74,63,30.10,30.02,0,0,0,0.00
2013-5-6,77.5,57.9,50.2,58.5,50.5,46.6,89,77,51,30.11,30.02,0,0,0,0.00
2013-5-7,84.7,64.8,49.3,58.0,51.6,44.6,86,65,38,30.12,30.03,0,0,0,0.00
2013-5-8,92.5,64.4,52.3,67.7,54.3,46.4,82,70,45,30.14,29.97,0,0,0,0.00
2013-5-9,78.6,67.7,58.3,63.1,58.4,53.8,86,73,58,30.04,29.93,0,0,0,0.00
2013-5-10,67.8,61.7,56.3,58.4,55.0,49.0,89,79,66,30.08,29.94,0,0,0,0.00
2013-5-11,80.4,64.6,48.7,54.4,44.6,31.9,86,51,27,30.24,30.09,0,0,0,0.00
2013-5-12,80.4,56.3,39.9,46.1,36.6,31.4,74,50,30,30.32,30.19,0,0,0,0.00
2013-5-13,98.2,74.7,48.0,62.7,52.8,40.5,75,48,31,30.23,30.08,0,0,0,0.00
2013-5-14,104.4,75.1,58.8,63.7,54.1,49.4,72,50,25,30.08,29.99,0,0,0,0.00
2013-5-15,84.4,70.6,62.2,68.1,58.3,49.5,84,66,50,30.04,29.94,0,0,0,0.00
2013-5-16,66.9,64.1,62.2,61.4,59.4,57.8,87,85,80,29.98,29.91,0,0,0,0.00
2013-5-17,106.0,71.2,61.7,73.5,61.9,55.1,89,75,34,30.00,29.93,0,0,0,0.00
2013-5-18,84.7,73.8,65.1,72.7,66.5,59.6,86,78,67,30.01,29.88,0,0,0,0.00
2013-5-19,97.0,78.2,69.6,72.3,67.8,64.1,89,72,42,29.93,29.73,0,0,0,0.00
2013-5-20,75.7,68.2,63.1,67.9,62.3,56.5,89,82,68,29.93,29.77,0,0,0,0.00
2013-5-21,70.3,64.1,60.8,62.0,58.7,55.1,88,83,72,29.93,29.66,61,51,61,0.00
2013-5-22,90.3,66.0,55.8,63.4,55.7,47.8,87,71,41,30.00,29.82,61,61,61,0.00
2013-5-23,87.4,65.5,54.7,65.5,54.0,49.6,85,68,43,30.23,29.99,61,61,61,0.00
2013-5-24,99.5,66.7,53.8,60.6,50.6,45.2,82,59,26,30.37,30.23,61,61,61,0.00
2013-5-25,103.8,70.5,57.0,71.6,55.2,44.0,70,59,35,30.29,30.12,61,61,61,0.00
2013-5-26,104.9,76.4,63.7,70.9,63.0,56.9,79,65,33,30.19,30.03,61,61,61,0.00
2013-5-27,84.7,75.5,66.6,69.6,64.6,60.1,82,70,59,30.06,29.85,61,61,61,0.00
2013-5-28,96.4,75.6,69.8,70.5,64.8,62.0,80,70,43,29.95,29.82,61,61,61,0.00
2013-5-29,99.5,76.2,68.5,71.6,64.3,61.4,81,68,41,29.97,29.83,61,61,61,0.00
2013-5-30,84.0,71.9,63.1,69.3,63.1,58.8,88,75,54,29.93,29.80,61,61,61,0.00
2013-5-31,84.4,76.9,64.2,73.4,68.9,59.5,90,77,67,29.91,29.75,0,0,0,0.00
2013-6-1,92.5,69.2,63.7,66.6,61.4,54.7,90,78,42,30.03,29.77,0,0,0,0.00
2013-6-2,64.2,60.6,57.0,56.3,53.8,51.6,85,78,71,30.12,30.02,0,0,0,0.00
2013-6-3,106.0,66.3,49.6,71.3,54.7,45.3,87,69,31,30.12,29.98,0,0,0,0.00
2013-6-4,83.1,70.5,60.8,65.8,60.6,54.2,80,71,56,30.08,29.98,0,0,0,0.00
2013-6-5,76.8,67.2,61.0,67.1,61.2,56.8,86,81,73,30.08,29.91,0,0,0,0.00
2013-6-6,72.3,65.9,58.3,64.4,59.4,55.1,90,80,65,30.00,29.94,0,0,0,0.00
2013-6-7,63.5,63.5,63.5,56.5,56.5,56.5,78,78,78,29.99,29.99,0,0,0,0.00
2013-6-8,63.5,63.5,63.5,56.5,56.5,56.5,78,78,78,29.99,29.99,0,0,0,0.00
2013-6-9,63.5,63.5,63.5,56.5,56.5,56.5,78,78,78,29.99,29.99,0,0,0,0.00
2013-6-10,63.5,63.5,63.5,56.5,56.5,56.5,78,78,78,29.99,29.99,0,0,0,0.00
2013-6-15,70.3,67.4,66.7,66.0,63.7,62.9,89,88,83,30.14,29.99,0,0,0,0.00
2013-6-16,88.3,74.9,67.6,74.4,67.6,61.8,87,79,61,30.07,29.96,0,0,0,0.00
2013-6-17,73.6,69.3,65.7,68.6,64.8,61.5,87,86,81,30.06,29.91,0,0,0,0.00
2013-6-18,86.5,72.2,61.7,69.3,63.0,57.8,88,74,53,30.09,30.00,0,0,0,0.00
2013-6-19,98.2,76.2,63.1,73.3,64.6,58.2,85,69,44,30.12,30.03,0,0,0,0.00
2013-6-20,103.8,79.4,67.8,75.5,67.2,61.8,82,67,41,30.15,30.05,0,0,0,0.00
2013-6-21,105.6,82.7,72.5,79.2,70.8,65.6,81,68,44,30.15,30.06,0,0,0,0.00
2013-6-22,91.8,81.7,73.6,75.0,71.0,67.0,85,71,56,30.15,30.01,0,0,0,0.00
2013-6-23,112.3,82.2,71.8,78.9,70.2,66.0,84,68,35,30.08,29.97,0,0,0,0.00
2013-6-24,108.9,83.0,73.2,77.8,69.8,66.3,81,66,38,30.12,30.00,0,0,0,0.00
2013-6-25,91.0,85.2,73.2,73.4,69.4,65.9,81,60,50,30.03,29.89,0,0,0,0.00
2013-6-26,109.8,84.2,73.8,83.1,71.7,66.1,81,67,41,29.97,29.89,0,0,0,0.00
2013-6-27,105.6,85.2,74.3,86.2,74.9,69.1,85,72,50,30.04,29.92,0,0,0,0.00
2013-6-28,102.7,79.1,69.4,74.8,66.4,58.6,86,67,35,30.00,29.89,0,0,0,0.00
2013-6-29,97.9,75.6,66.7,63.0,58.1,55.2,72,56,32,29.92,29.84,0,0,0,0.00
2013-6-30,76.8,69.1,-22.0,61.9,58.5,-31.8,83,69,56,30.03,29.89,0,0,0,0.00
2013-7-1,90.5,71.3,62.2,63.4,56.8,51.5,83,62,39,30.09,30.01,0,0,0,0.00
2013-7-2,96.6,70.3,59.2,61.1,53.4,50.1,74,56,31,30.14,30.07,0,0,0,0.00
2013-7-3,102.6,70.6,58.5,67.1,56.8,51.6,80,63,32,30.17,30.06,0,0,0,0.00
2013-7-4,91.6,72.8,60.1,65.9,59.6,54.6,83,65,43,30.14,30.04,0,0,0,0.00
2013-7-5,106.9,76.7,62.4,70.9,61.1,55.8,80,61,31,30.12,30.01,0,0,0,0.00
2013-7-6,91.0,79.2,67.6,68.2,63.6,60.0,78,61,43,30.10,29.99,0,0,0,0.00
2013-7-7,108.1,82.1,70.3,72.0,65.4,61.5,76,59,33,30.12,30.04,0,0,0,0.00
2013-7-8,110.8,82.4,72.1,77.6,68.0,62.8,76,63,36,30.17,30.08,0,0,0,0.00
2013-7-9,110.8,85.2,74.1,77.9,69.8,65.4,78,62,36,30.15,30.02,0,0,0,0.00
2013-7-10,112.3,82.9,70.9,79.2,70.8,65.5,85,68,37,30.11,29.98,0,0,0,0.00
2013-7-11,112.6,82.6,73.9,75.6,68.0,61.5,81,63,32,30.10,30.02,0,0,0,0.00
2013-7-12,113.9,79.1,67.6,71.8,61.0,56.1,71,56,27,30.15,30.05,0,0,0,0.00
2013-7-13,84.4,75.4,65.5,64.0,59.6,54.0,70,59,47,30.14,30.02,0,0,0,0.00
2013-7-14,109.9,78.2,64.9,70.2,61.2,57.0,77,58,29,30.15,30.06,0,0,0,0.00
2013-7-15,97.0,78.5,70.3,74.0,66.7,59.9,83,68,48,30.25,30.15,0,0,0,0.00
2013-7-16,90.9,77.7,71.1,75.5,69.6,66.5,87,77,55,30.34,30.24,0,0,0,0.00
2013-7-17,114.8,82.7,71.2,82.1,70.5,66.2,85,69,36,30.39,30.25,0,0,0,0.00
2013-7-18,118.2,85.1,71.8,80.8,68.8,64.2,79,60,29,30.28,30.09,0,0,0,0.00
2013-7-19,95.5,81.9,72.0,73.4,68.3,64.3,79,65,47,30.11,29.99,0,0,0,0.00
2013-7-20,91.9,77.8,70.0,74.4,68.0,64.5,87,72,55,30.05,29.92,0,0,0,0.00
2013-7-21,87.4,74.5,70.7,76.4,69.0,66.6,87,83,69,30.02,29.92,0,0,0,0.00
2013-7-22,103.3,78.2,66.9,77.0,68.4,62.6,86,73,43,30.01,29.90,0,0,0,0.00
2013-7-23,112.8,83.1,73.0,82.0,71.3,63.6,83,69,36,29.96,29.86,0,0,0,0.00
2013-7-24,113.7,79.2,72.0,76.0,67.2,-25.3,84,69,29,30.09,29.94,0,0,0,0.00
2013-7-25,106.0,77.0,64.8,73.5,63.0,57.6,79,63,35,30.17,30.09,0,0,0,0.00
2013-7-26,74.5,69.8,67.8,65.4,63.8,61.6,88,82,65,30.12,30.05,0,0,0,0.00
2013-7-27,79.0,71.0,66.4,64.3,61.5,57.9,88,73,54,30.12,30.03,0,0,0,0.00
2013-7-28,72.7,68.2,64.2,62.8,60.8,57.6,84,77,69,30.12,30.05,0,0,0,0.00
2013-7-29,81.7,73.2,66.4,72.1,66.7,61.7,86,80,71,30.16,30.07,0,0,0,0.00
2013-7-30,80.8,74.8,73.0,75.1,70.3,68.4,87,86,83,30.13,30.04,0,0,0,0.00
2013-7-31,97.5,79.4,73.4,75.9,71.6,65.7,87,78,48,30.14,30.06,0,0,0,0.00
2013-8-1,103.6,77.6,66.7,73.1,66.1,62.4,86,69,40,30.17,30.05,0,0,0,0.00
2013-8-2,88.0,77.2,71.2,77.1,69.1,64.3,83,76,67,30.07,29.94,0,0,0,0.00
2013-8-3,86.5,76.2,68.4,74.3,69.7,63.7,90,81,66,30.16,29.94,0,0,0,0.00
2013-8-4,75.7,39.2,-12.3,70.6,66.7,-12.5,99,49,84,30.23,30.10,0,0,0,0.00
2013-8-5,87.1,33.9,-12.3,78.6,31.7,-12.5,99,93,76,30.12,29.91,0,0,0,0.00
2013-8-6,93.7,64.3,-1.5,82.6,60.3,-4.6,99,87,68,30.02,29.89,0,0,0,0.00
2013-8-7,93.4,76.8,72.3,78.9,71.7,67.9,89,84,62,30.04,29.88,0,0,0,0.00
2013-8-8,83.1,77.2,75.0,74.4,71.0,69.5,86,82,70,30.05,29.93,0,0,0,0.00
2013-8-9,80.1,75.9,72.0,72.1,69.5,66.9,84,81,72,30.12,30.00,0,0,0,0.00
2013-8-10,91.0,75.4,69.1,72.0,67.1,64.7,86,76,52,30.20,30.12,0,0,0,0.00
2013-8-11,85.8,76.3,69.8,75.1,69.3,64.7,85,79,70,30.18,30.09,0,0,0,0.00
2013-8-12,83.1,75.3,72.7,72.8,69.5,67.4,85,82,69,30.13,30.02,0,0,0,0.00
2013-8-13,82.0,75.0,69.4,70.4,66.1,60.6,85,75,60,30.15,30.05,0,0,0,0.00
2013-8-14,77.7,70.2,63.7,62.3,58.5,55.3,83,67,51,30.23,30.14,0,0,0,0.00
2013-8-15,76.6,67.4,56.8,58.8,55.5,50.2,82,67,52,30.20,30.09,0,0,0,0.00
2013-8-16,73.9,66.9,61.0,60.6,56.8,54.1,80,70,61,30.19,30.12,0,0,0,0.00
2013-8-17,79.3,68.8,58.5,63.6,58.6,52.7,83,71,57,30.22,30.12,0,0,0,0.00
2013-8-18,83.1,72.3,62.4,66.9,61.9,56.9,84,71,54,30.22,30.12,0,0,0,0.00
2013-8-19,85.6,73.9,63.1,69.1,63.5,57.9,84,71,53,30.19,30.08,0,0,0,0.00
2013-8-20,86.2,75.3,64.4,69.6,64.4,59.1,84,70,53,30.17,30.09,0,0,0,0.00
2013-8-21,88.3,77.0,65.1,71.6,66.1,59.5,84,70,54,30.19,30.11,0,0,0,0.00
2013-8-22,87.8,78.2,68.7,72.1,68.0,63.9,85,72,55,30.19,30.09,0,0,0,0.00
2013-8-23,89.8,78.9,68.4,74.3,68.7,63.3,85,72,54,30.17,30.08,0,0,0,0.00
2013-8-24,90.1,76.7,72.1,73.5,68.1,66.3,85,75,55,30.23,30.12,0,0,0,0.00
2013-8-25,91.2,80.2,70.3,74.6,68.9,65.3,85,70,50,30.30,30.21,0,0,0,0.00
2013-8-26,91.0,80.8,72.3,75.1,70.5,67.2,85,72,53,30.28,30.16,0,0,0,0.00
2013-8-27,90.3,80.0,70.5,70.8,68.2,65.1,83,69,50,30.19,30.09,0,0,0,0.00
2013-8-28,90.7,79.0,68.5,72.5,68.2,63.2,85,71,53,30.15,30.09,0,0,0,0.00
2013-8-29,92.5,81.3,71.2,75.2,70.9,66.2,85,72,55,30.15,30.05,0,0,0,0.00
2013-8-30,94.3,83.2,74.3,75.2,71.7,69.1,85,70,51,30.08,29.95,0,0,0,0.00
2013-8-31,95.2,83.4,73.2,73.9,71.4,68.1,84,69,49,29.99,29.88,0,0,0,0.00
2013-9-1,86.5,78.5,74.8,71.7,69.4,66.7,83,74,59,30.00,29.87,0,0,0,0.00
2013-9-2,84.0,76.1,68.5,68.3,64.3,59.8,84,68,50,30.07,29.96,0,0,0,0.00
2013-9-3,85.8,73.9,61.0,65.7,60.2,55.1,82,64,45,30.15,30.05,0,0,0,0.00
2013-9-4,86.7,74.1,60.6,64.8,60.3,54.2,81,64,45,30.23,30.12,0,0,0,0.00
2013-9-5,86.5,74.2,61.7,65.4,60.8,55.1,81,64,46,30.27,30.17,0,0,0,0.00
2013-9-6,86.7,74.9,64.0,67.1,62.0,-19.4,82,66,44,30.23,30.09,0,0,0,0.00
2013-9-7,91.2,77.7,65.5,70.7,65.3,59.1,83,67,47,30.12,30.01,0,0,0,0.00
2013-9-8,90.7,78.1,68.9,73.8,68.2,63.0,82,72,54,30.05,29.96,0,0,0,0.00
2013-9-9,93.2,81.0,70.5,70.4,67.5,65.4,85,66,44,30.08,29.99,0,0,0,0.00
2013-9-10,92.5,84.1,69.6,68.8,66.2,62.8,80,56,43,30.19,30.06,0,0,0,0.00
2013-9-11,91.8,79.2,68.5,71.2,66.7,62.3,82,67,48,30.22,30.11,0,0,0,0.00
2013-9-12,88.0,81.6,70.3,71.3,67.4,63.1,83,63,55,30.16,30.07,0,0,0,0.00
2013-9-13,76.6,70.2,61.9,57.3,53.0,49.6,68,55,45,30.19,30.08,0,0,0,0.00
2013-9-14,79.2,67.1,54.1,56.0,52.2,46.0,76,60,42,30.17,30.05,0,0,0,0.00
2013-9-15,86.4,72.2,59.7,65.6,57.6,49.5,70,61,50,30.12,30.06,0,0,0,0.00
2013-9-16,73.8,69.7,67.1,67.0,63.0,60.1,84,79,67,30.26,30.12,0,0,0,0.00
2013-9-17,77.9,70.8,66.0,68.0,64.2,61.4,86,80,69,30.23,30.07,0,0,0,0.00
2013-9-18,82.2,73.6,69.4,70.9,67.3,63.7,85,81,68,30.10,30.01,0,0,0,0.00
2013-9-19,88.5,77.2,70.9,72.7,68.2,65.1,86,75,55,30.06,29.94,0,0,0,0.00
2013-9-20,73.9,48.5,-18.6,67.2,43.5,-21.3,99,84,68,30.05,29.98,0,0,0,0.00
2013-9-21,73.0,62.3,52.0,53.2,49.9,47.0,84,66,43,30.08,29.97,0,0,0,0.00
2013-9-22,76.3,62.6,48.6,55.9,50.6,42.8,83,66,46,30.06,29.94,0,0,0,0.00
2013-9-23,77.5,65.4,52.5,58.4,53.3,46.5,82,66,50,30.02,29.89,0,0,0,0.00
2013-9-24,77.7,68.0,60.4,60.4,56.9,53.7,80,68,54,29.97,29.88,0,0,0,0.00
2013-9-25,78.6,67.0,56.8,63.1,57.7,51.4,83,73,57,29.94,29.88,0,0,0,0.00
2013-9-26,82.2,70.3,60.1,64.5,59.7,54.6,85,70,53,30.04,29.92,0,0,0,0.00
2013-9-27,84.0,78.1,65.3,66.8,63.5,60.3,84,62,49,30.09,29.99,0,0,0,0.00
2013-9-28,75.6,68.9,63.5,66.0,62.6,59.9,88,81,71,30.11,29.98,0,0,0,0.00
2013-9-29,74.5,66.3,60.4,59.9,57.4,53.5,88,74,52,30.13,30.00,0,0,0,0.00
2013-9-30,76.6,66.4,58.8,66.2,59.6,52.3,86,79,66,30.02,29.92,0,0,0,0.00
2013-10-1,92.5,73.4,-18.6,92.2,66.0,-18.8,99,79,57,30.07,29.96,0,0,0,0.00
2013-10-2,81.1,72.6,67.1,71.0,66.0,61.6,87,80,69,30.10,29.99,0,0,0,0.00
2013-10-3,84.0,74.1,67.1,70.8,66.4,63.1,88,78,60,30.02,29.91,0,0,0,0.00
2013-10-4,84.0,74.9,68.9,70.9,66.6,62.9,88,76,61,30.00,29.92,0,0,0,0.00
2013-10-5,72.7,58.9,48.9,67.0,54.8,44.9,88,86,80,30.07,29.97,0,0,0,0.00
2013-10-6,58.8,52.6,45.1,46.9,43.6,40.0,88,72,58,30.05,29.96,0,0,0,0.00
2013-10-7,70.0,57.6,47.3,51.0,46.3,41.4,81,67,48,30.19,30.04,0,0,0,0.00
2013-10-8,71.4,59.7,47.3,53.4,48.7,41.4,83,68,52,30.21,30.12,0,0,0,0.00
2013-10-9,74.1,61.4,48.4,54.0,49.3,41.8,81,66,48,30.19,30.10,0,0,0,0.00
2013-10-10,75.0,63.6,52.0,59.2,53.0,46.3,83,69,50,30.17,30.00,0,0,0,0.00
2013-10-11,77.5,67.2,58.5,64.3,59.0,53.7,86,76,62,30.03,29.92,0,0,0,0.00
2013-10-12,66.7,62.8,59.4,59.8,57.3,54.9,87,82,76,30.16,29.96,0,0,0,0.00
2013-10-13,70.3,61.7,57.0,50.6,47.1,43.8,68,59,49,30.39,30.26,0,0,0,0.00
2013-10-14,64.2,60.3,55.9,58.5,51.2,44.0,86,72,61,30.30,30.01,0,0,0,0.00
2013-10-15,62.8,59.0,52.0,58.5,53.7,45.3,88,83,73,30.09,29.95,0,0,0,0.00
2013-10-16,58.5,51.9,44.6,45.1,42.5,38.2,78,70,61,30.15,30.04,0,0,0,0.00
2013-10-17,63.1,54.1,47.1,45.9,43.7,40.5,81,69,52,30.09,30.01,0,0,0,0.00
2013-10-18,58.3,48.9,41.7,46.2,41.3,37.2,84,75,64,30.11,30.03,0,0,0,0.00
2013-10-19,58.5,50.5,38.5,42.7,38.8,33.5,85,65,50,30.15,30.04,0,0,0,0.00
2013-10-20,68.4,54.6,43.0,45.9,40.9,36.6,79,62,39,30.06,29.92,0,0,0,0.00
2013-10-21,57.4,49.6,42.1,44.0,39.7,34.7,78,69,54,30.14,30.00,0,0,0,0.00
2013-10-22,65.1,50.4,38.1,47.2,38.9,31.7,81,66,47,30.12,29.94,0,0,0,0.00
2013-10-23,57.9,46.9,37.2,40.4,35.8,30.7,78,66,52,30.23,30.06,0,0,0,0.00
2013-10-24,52.2,46.2,41.4,37.4,32.5,26.8,77,60,43,30.45,30.13,0,0,0,0.00
2013-10-25,57.0,45.1,33.1,34.0,29.6,25.2,74,56,39,30.52,30.24,0,0,0,0.00
2013-10-26,65.5,52.1,42.1,51.6,41.0,30.1,74,66,57,30.24,30.11,0,0,0,0.00
2013-10-27,66.2,51.3,37.9,43.6,37.6,30.4,75,61,41,30.17,30.03,0,0,0,0.00
2013-10-28,67.5,54.5,42.3,54.8,46.1,34.7,86,74,59,30.22,30.07,0,0,0,0.00
2013-10-29,55.9,50.7,0.0,52.4,51.8,49.5,88,79,81,30.19,30.11,0,0,0,0.00
2013-11-1,63.7,53.5,47.3,47.8,43.8,40.5,87,71,51,30.01,29.78,0,0,0,0.00
2013-11-2,54.7,47.0,39.9,40.8,37.7,33.0,80,70,56,30.24,30.01,0,0,0,0.00
2013-11-3,59.9,47.9,34.3,41.8,36.6,28.8,81,66,50,30.27,30.09,0,0,0,0.00
2013-11-4,61.2,53.4,49.3,48.5,43.8,38.9,82,70,63,30.21,30.08,0,0,0,0.00
2013-11-5,58.3,55.8,53.2,54.7,52.1,48.4,89,87,83,30.21,30.01,0,0,0,0.00
2013-11-6,58.3,50.0,40.3,54.7,45.2,33.6,88,83,76,30.37,29.96,0,0,0,0.00
2013-11-7,59.0,50.5,33.6,42.3,37.2,28.7,83,61,46,30.44,30.35,0,0,0,0.00
2013-11-8,57.4,44.4,42.6,42.7,35.0,33.5,78,69,58,30.39,30.29,0,0,0,0.00
2013-11-9,66.4,57.4,45.3,46.2,42.6,36.8,75,59,46,30.30,30.13,0,0,0,0.00
2013-11-10,65.8,52.3,41.7,42.7,38.6,35.1,79,61,40,30.43,30.30,0,0,0,0.00
2013-11-11,62.1,51.8,38.8,49.9,42.5,33.5,81,71,61,30.47,30.21,0,0,0,0.00
2013-11-12,38.8,32.2,25.5,32.8,19.1,14.5,80,59,44,30.76,30.47,0,0,0,0.00
2013-11-13,50.5,35.6,21.6,26.6,19.3,13.0,71,53,34,30.69,30.32,0,0,0,0.00
2013-11-14,57.0,43.6,29.7,28.8,23.2,16.8,60,45,31,30.31,30.07,0,0,0,0.00
2013-11-15,58.8,50.0,44.4,46.0,38.9,27.6,81,66,48,30.09,29.90,0,0,0,0.00
2013-11-16,70.0,61.0,51.4,60.0,53.9,45.8,85,78,64,29.92,29.65,0,0,0,0.00
2013-11-17,72.3,64.6,49.3,62.3,45.9,25.0,82,54,30,30.11,29.56,0,0,0,0.00
2013-11-18,58.8,47.9,40.1,38.4,30.7,26.9,69,52,35,30.31,30.10,0,0,0,0.00
2013-11-19,57.4,47.5,37.9,34.9,30.0,25.3,67,52,39,30.31,30.12,0,0,0,0.00
2013-11-20,58.8,49.3,40.8,36.1,31.4,24.9,67,51,40,30.12,29.96,0,0,0,0.00
2013-11-21,53.8,51.3,44.2,48.2,43.0,33.3,87,74,46,30.28,30.03,0,0,0,0.00
2013-11-22,44.2,32.8,30.7,39.3,28.6,25.8,87,84,81,30.54,30.28,0,0,0,0.00
2013-11-23,38.8,30.9,20.8,27.4,19.4,9.3,81,63,49,30.69,30.52,0,0,0,0.00
2013-11-24,33.6,26.1,17.2,17.5,12.6,7.3,69,57,46,30.69,30.37,0,0,0,0.00
2013-11-25,39.9,34.3,30.9,27.9,21.9,14.4,70,60,50,30.37,30.19,0,0,0,0.00
2013-11-26,43.0,34.2,24.4,29.7,23.7,12.5,75,65,55,30.33,30.13,0,0,0,0.00
2013-11-27,35.2,26.0,19.0,16.7,12.5,9.0,65,57,45,30.42,30.28,0,0,0,0.00
2013-11-28,51.4,36.7,24.4,30.8,22.2,12.9,65,56,43,30.46,30.27,0,0,0,0.00
2013-11-29,54.1,40.3,27.3,34.0,26.9,19.2,72,59,45,30.52,30.34,0,0,0,0.00
2013-11-30,61.3,46.7,35.8,43.9,34.5,25.7,73,63,52,30.34,30.13,0,0,0,0.00
2013-12-1,56.5,46.8,37.2,48.3,40.2,31.0,84,78,73,30.17,29.93,0,0,0,0.00
2013-12-2,60.4,50.3,41.5,49.8,43.6,35.8,85,78,66,29.94,29.72,0,0,0,0.00
2013-12-3,61.9,50.6,39.6,53.0,44.9,34.1,87,81,71,29.73,29.61,0,0,0,0.00
2013-12-4,63.5,49.3,32.4,52.5,43.0,26.1,87,79,58,29.99,29.62,0,0,0,0.00
2013-12-5,32.2,24.6,19.9,26.4,17.3,13.9,79,74,67,30.31,29.98,0,0,0,0.00
2013-12-6,22.3,19.3,14.4,15.0,11.7,3.7,78,72,62,30.56,30.25,0,0,0,0.00
2013-12-7,28.0,18.3,9.1,13.9,7.3,0.2,69,62,51,30.63,30.32,0,0,0,0.00
2013-12-8,30.6,26.1,21.4,24.5,18.9,12.3,82,74,64,30.33,30.02,0,0,0,0.00
2013-12-9,28.6,24.2,20.5,23.8,17.0,12.5,82,74,62,30.34,30.16,0,0,0,0.00
2013-12-10,34.7,22.7,9.0,20.2,13.4,2.4,77,68,54,30.40,30.27,0,0,0,0.00
2013-12-11,35.2,24.6,16.0,23.8,14.2,7.6,77,65,52,30.62,30.29,0,0,0,0.00
2013-12-12,42.3,27.9,13.8,23.9,15.3,5.2,69,59,47,30.62,30.28,0,0,0,0.00
2013-12-13,36.9,33.7,28.9,31.1,26.0,16.8,83,74,59,30.28,29.89,0,0,0,0.00
2013-12-14,35.4,31.4,27.1,30.8,26.8,21.5,87,83,79,30.23,29.86,0,0,0,0.00
2013-12-15,46.6,33.6,21.0,34.2,25.7,15.5,80,73,61,30.25,30.10,0,0,0,0.00
2013-12-16,58.8,46.2,38.1,39.2,33.4,28.8,72,62,47,30.15,30.05,0,0,0,0.00
2013-12-17,51.8,42.3,30.2,36.0,29.9,24.2,78,62,46,30.32,30.15,0,0,0,0.00
2013-12-18,61.2,45.2,33.6,40.2,31.5,23.8,74,59,43,30.31,29.97,0,0,0,0.00
2013-12-19,56.8,52.4,45.5,49.0,44.0,34.2,79,73,64,29.98,29.78,0,0,0,0.00
2013-12-20,58.8,44.0,32.2,54.3,39.1,27.9,85,83,77,29.93,29.76,0,0,0,0.00
2013-12-21,36.7,34.7,31.8,32.9,30.5,27.5,86,85,84,29.86,29.54,0,0,0,0.00
2013-12-22,36.5,29.6,24.8,32.7,25.0,19.6,86,83,80,30.35,29.71,0,0,0,0.00
2013-12-23,28.8,22.0,17.8,19.8,15.3,12.1,81,75,65,30.57,30.35,0,0,0,0.00
2013-12-24,35.4,24.7,14.2,22.9,15.9,7.9,78,69,60,30.57,30.28,0,0,0,0.00
2013-12-25,40.1,33.3,28.0,31.8,25.6,20.4,81,73,68,30.38,30.30,0,0,0,0.00
2013-12-26,49.6,35.1,25.3,34.4,25.6,19.7,81,69,51,30.40,30.28,0,0,0,0.00
2013-12-27,57.4,39.6,27.1,37.6,27.7,19.8,77,64,43,30.42,30.30,0,0,0,0.00
2013-12-28,54.7,41.0,28.2,37.3,28.8,20.7,75,62,48,30.31,29.96,0,0,0,0.00
2013-12-29,43.2,29.3,20.1,34.4,20.6,10.7,77,69,63,30.29,29.96,0,0,0,0.00
2013-12-30,37.8,25.6,14.5,18.8,12.5,4.2,67,58,45,30.33,30.21,0,0,0,0.00
2013-12-31,54.9,38.4,21.9,32.5,22.2,12.5,70,53,38,30.38,30.18,0,0,0,0.00
2014-1-1,52.2,37.8,20.8,33.1,24.8,15.1,78,60,47,30.19,29.93,0,0,0,0.00
2014-1-2,21.7,15.9,10.6,15.1,6.8,2.5,78,67,55,30.46,30.14,0,0,0,0.00